[Date Prev][Date Next][Thread Prev][Thread Next] - [Date Index][Thread Index][Author Index]
2 Line ISS Keps 3-6
- Subject: [sarex] 2 Line ISS Keps 3-6
- From: "Dave Larsen PhD" <doc@xxxxxxxxxxx>
- Date: Wed, 6 Mar 2002 03:12:52 -0800
ISS
1 25544U 98067A 02065.40069380 .00057559 00000-0 70000-3 0 1525
2 25544 51.6407 209.3395 0004217 157.6719 248.9223 15.59975613188004
----
Via the sarex mailing list at AMSAT.ORG courtesy of AMSAT-NA.
To unsubscribe, send "unsubscribe sarex" to Majordomo@amsat.org
AMSAT Home